Retour au catalogue

GLOBALSTAR M023

ActifCommunicationsLEO
NORAD 25621·PAYLOAD·🇺🇸 United States

Lancé Feb 9, 1999 depuis Baikonur Cosmodrome

Loading…

Prochains Passages (prochaines 24 heures)

TLE

FraisSource: Space-Track

Époque: Sep 14, 2026, 20:30 UTC

1 25621U 99004A   26257.85426062 -.00000085  00000-0  10609-3 0  9996
2 25621  52.0092 108.9315 0010520  54.4149 330.5275 12.62534403273162

Suivez GLOBALSTAR M023 en temps réel avec AllMySat

Download on the App Store